Regional Weather Roundup
Issued by NWS

Home | Current Version | Previous Version | Text Only | Print | Product List | Glossary On
Versions: 1 2 3 4 5 6 7 8 9 10 11 12 13 14 15 16 17 18 19 20 21 22 23 24 25 26 27 28 29 30 31 32 33 34 35 36 37 38 39 40 41 42 43 44 45 46 47 48 49 50
000
ASUS43 KDTX 190710
RWRMI
MICHIGAN HOURLY REGIONAL WEATHER ROUNDUP
NATIONAL WEATHER SERVICE DETROIT/PONTIAC MI
ISSUED BY NATIONAL WEATHER SERVICE GRAND RAPIDS MI
200 AM EST SUN FEB 19 2017

NOTE: "FAIR" INDICATES FEW OR NO CLOUDS BELOW 12,000 FEET WITH NO
SIGNIFICANT WEATHER AND/OR OBSTRUCTION TO VISIBILITY.

MIZ047>049-052>055-059>063-066>070-074>076-081>083-190800-
SOUTHEAST LOWER MICHIGAN

CITY           SKY/WX    TMP DP  RH WIND       PRES   REMARKS
ADRIAN         CLEAR     40  37  89 W3        29.83R
ALMA           MOCLDY    40  35  83 W7        29.82R
ANN ARBOR      CLOUDY    45  35  68 W5        29.81R
BAD AXE        PTCLDY    38  34  84 CALM      29.78R
DETROIT CITY   CLEAR     47  36  65 W5        29.80R
DETROIT        CLEAR     46  34  62 W3        29.82R
FLINT          CLOUDY    38  33  82 W7        29.81R WCI  33
GROSSE ILE     CLEAR     44  36  71 W5        29.80R
HILLSDALE      CLEAR     36  32  87 W6        29.82R WCI  31
HOWELL         PTCLDY    38  33  82 W6        29.81S WCI  34

CITY           SKY/WX    TMP DP  RH WIND       PRES   REMARKS
JACKSON        CLOUDY    37  32  82 W3        29.83R
LANSING        CLOUDY    42  34  73 W7        29.83R
MASON          CLOUDY    35  33  92 CALM      29.83R
MONROE         CLEAR     38  36  91 W12       29.81R WCI  31
MT. CLEMENS    CLOUDY    46  37  70 W7        29.77R
PONTIAC        CLOUDY    43  36  76 W6        29.79R
PORT HOPE        N/A     42  35  76 VRB5      29.76R
PORT HURON     CLOUDY    43  36  75 W3        29.79R
TRI CITIES     MOCLDY    38  35  89 W12       29.80R WCI  30
YPSILANTI      CLEAR     45  35  68 W6        29.81R
$$
MIZ043>046-050>051-056>058-064>065-071>073-077>080-190800-
SOUTHWEST LOWER MICHIGAN

CITY           SKY/WX    TMP DP  RH WIND       PRES   REMARKS
BATTLE CREEK   PTCLDY    41  34  76 W7        29.85R
BENTON HARBOR  CLEAR     32  30  92 CALM      29.86R
BIG RAPIDS     PTCLDY    32  31  95 CALM      29.81R
COLDWATER      CLOUDY    35  32  88 W3        29.84R
HOLLAND        CLEAR     40  34  79 SW3       29.85S
GRAND RAPIDS   PTCLDY    38  33  82 W7        29.84R WCI  33
KALAMAZOO      CLEAR     35  30  82 CALM      29.86R
MARSHALL       PTCLDY    33  33  98 CALM      29.84R
MOUNT PLEASANT CLOUDY    41  35  79 W7        29.80R
MUSKEGON       CLEAR     32  30  92 CALM      29.85R FOG
STURGIS        CLEAR     37  34  92 CALM      29.84R
$$
MIZ016>042-190800-
NORTHERN LOWER MICHIGAN

CITY           SKY/WX    TMP DP  RH WIND       PRES   REMARKS
ALPENA         PTCLDY    36  32  85 W3        29.75R
BEAVER ISLAND  PTCLDY    35  31  88 SW6       29.76R WCI  29
BELLAIRE       MOCLDY    28  28  99 CALM      29.80R
CADILLAC       PTCLDY    31  30  93 CALM      29.79R
CHARLEVOIX     PTCLDY    39  32  75 SW6       29.80R WCI  35
GAYLORD        PTCLDY    37  30  75 W5        29.76R WCI  33
HOUGHTON LAKE  PTCLDY    37  31  78 W6        29.79R WCI  32
MANISTEE       CLOUDY    35  34  96 W5        29.82R WCI  31
OSCODA         CLOUDY    40  32  74 W7        29.75R WCI  35
PELLSTON       CLEAR     26  23  88 CALM      29.75R
TRAVERSE CITY  PTCLDY    39  32  76 SW7       29.79R WCI  34
LUDINGTON      PTCLDY    38  32  78 CALM      29.82S
$$
MIZ007>008-015-190800-
EASTERN UPPER MICHIGAN

CITY           SKY/WX    TMP DP  RH WIND       PRES   REMARKS
KINROSS        PTCLDY    34  29  82 W8        29.71R WCI  27
MACKINAC ISLAN CLEAR     37  32  81 SW10      29.72S WCI  30
NEWBERRY       CLEAR     38  30  73 W10       29.71S WCI  31
S. S. MARIE    CLEAR     41  31  67 W9        29.69R
$$
MIZ004>006-011>014-085-190800-
CENTRAL UPPER MICHIGAN

CITY           SKY/WX    TMP DP  RH WIND       PRES   REMARKS
MANISTIQUE     PTCLDY    41  30  65 W7        29.75R
ESCANABA       PTCLDY    45  29  53 W6        29.78R
MENOMINEE      CLOUDY    39  29  67 CALM      29.79F
SAWYER-GWINN   MOCLDY    39  29  66 NW6       29.77R WCI  35
$$
MIZ001>003-009>011-084-190800-
WESTERN UPPER MICHIGAN

CITY           SKY/WX    TMP DP  RH WIND       PRES   REMARKS
IRON MOUNTAIN  PTCLDY    44  26  49 NW8       29.77R
HOUGHTON       CLEAR     39  30  70 W8        29.76R WCI  33
COPPER HARBOR    N/A     43  32  65 N15G22    29.75R
IRONWOOD       PTCLDY    41  29  62 SW6       29.84R
$$

ABBREVIATIONS USED IN REMARKS
   TC - TEMPERATURE IN CELSIUS
  WCI - WIND CHILL INDEX
   HX - HEAT INDEX
  VSB - VISIBILITY




USA.gov is the U.S. government's official web portal to all federal, state and local government web resources and services.